Flag for Germany Weather past 2 weeks in Warstein, North Rhine-Westphalia, Germany

Now
63 °F

Thundershowers. Clear.


Feels Like: 63 °F
Forecast: 63 / 75 °F
Wind: 5 mph from West

Location: Paderborn / Lippstadt

Current Time: Jul 29, 2014 at 1:09:25 AM

Latest Report: Jul 28, 2014 at 11:50 PM


Visibility: N/A

Pressure: 29.89 "Hg

Humidity: 100%

Dew point: 63 °F

Location of WarsteinLocation

Historic Weather in Warstein — Graph

°F

Warstein temperature yesterday

Maximum temperature yesterday: 81 °F (at 3:20 PM)
Minimum temperature yesterday: 59 °F (at 5:20 AM)
Average temperature yesterday: 71 °F

Past Weeks' High & Low Weather Summary

 TemperatureHumidityPressure
High88 °F (Jul 19, 1:50 PM)100% (Jul 14, 4:20 AM)30.21 "Hg (Jul 14, 4:20 AM)
Low54 °F (Jul 15, 3:20 AM)27% (Jul 19, 1:20 PM)29.74 "Hg (Jul 13, 10:50 PM)
Average69 °F70%30.01 "Hg
* Reported Jul 13 10:20 PM — Jul 28 10:50 PM, Warstein, Weather by CustomWeather, © 2014

Note: Actual official high and low records may vary slightly from our data, if they occured in-between our weather recording intervals... More about our weather records

Advertising

Warstein weather history for previous 24 hours

 ConditionsComfort  
Time TempWeatherWind HumidityBarometerVisibility
10:50 PM
Jul 28
64 °FPartly cloudy.6 mph94%29.89 "HgN/A
10:20 PM64 °FBroken clouds.5 mph88%29.89 "HgN/A
9:50 PM64 °FThundershowers. Broken clouds.5 mph88%29.89 "HgN/A
9:20 PM64 °FScattered showers. Scattered clouds.7 mph94%29.89 "HgN/A
8:50 PM66 °FScattered showers. Scattered clouds.7 mph88%29.86 "HgN/A
8:20 PM72 °FScattered showers. Clear.2 mph69%29.86 "HgN/A
7:50 PM75 °FPassing clouds.7 mph61%29.83 "HgN/A
7:20 PM75 °FScattered showers. Scattered clouds.7 mph61%29.83 "HgN/A
6:50 PM75 °FScattered showers. Scattered clouds.13 mph57%29.83 "HgN/A
6:20 PM79 °FScattered showers. Scattered clouds.7 mph54%29.83 "HgN/A
5:50 PM79 °FSunny.9 mph51%29.83 "Hg10 mi
5:20 PM79 °FSunny.9 mph51%29.83 "Hg10 mi
4:50 PM81 °FScattered clouds.9 mph48%29.83 "HgN/A
4:20 PM79 °FScattered clouds.12 mph51%29.86 "HgN/A
3:50 PM79 °FScattered clouds.8 mph51%29.86 "HgN/A
3:20 PM81 °FScattered clouds.13 mph48%29.86 "HgN/A
2:50 PM79 °FScattered clouds.10 mph51%29.86 "HgN/A
2:20 PM79 °FScattered clouds.10 mph51%29.86 "HgN/A
1:50 PM77 °FScattered clouds.9 mph54%29.89 "HgN/A
1:20 PM79 °FPassing clouds.9 mph51%29.89 "HgN/A
12:50 PM77 °FPassing clouds.9 mph54%29.89 "HgN/A
12:20 PM77 °FClear.7 mph57%29.89 "Hg6 mi
11:50 AM75 °FClear.9 mph61%29.92 "Hg6 mi
11:20 AM73 °FClear.8 mph65%29.92 "Hg6 mi
10:50 AM72 °FClear.8 mph69%29.92 "Hg6 mi
10:20 AM72 °FClear.10 mph65%29.92 "Hg6 mi
9:50 AM72 °FClear.7 mph69%29.92 "Hg5 mi
9:20 AM68 °FScattered clouds.7 mph83%29.92 "Hg5 mi
8:50 AM68 °FScattered clouds.6 mph78%29.95 "Hg5 mi
8:20 AM66 °FScattered clouds.6 mph88%29.95 "Hg5 mi
7:50 AM64 °FClear.3 mph94%29.95 "Hg5 mi
7:20 AM61 °FClear.3 mph94%29.95 "Hg4 mi
6:50 AM63 °FSunny.5 mph94%29.95 "Hg10 mi
6:20 AM61 °FClear.2 mph94%29.95 "Hg10 mi
5:50 AM59 °FClear.3 mph94%29.95 "Hg10 mi
5:20 AM59 °FClear.2 mph94%29.95 "Hg10 mi
4:20 AM61 °FClear.2 mph94%29.95 "Hg10 mi
Weather by CustomWeather, © 2014

See weather overviewHow to use our weather pages